Sacramento, CA

6:59 PM PDT on June 25, 2017 (GMT -0700)
Sacramento Executive

Weather History for KSAC - February, 2012

Change the Weather History Date:

Saturday, February 18, 2012

  Actual Average Record
Temperature  
Mean Temperature 52 °F -  
Max Temperature 58 °F 61 °F 74 °F (1977)
Min Temperature 46 °F 42 °F 29 °F (1956)
Degree Days  
Heating Degree Days 13    
Month to date heating degree days 246  
Cooling Degree Days 0    
Month to date cooling degree days 0  
Year to date cooling degree days 0  
Growing Degree Days 1 (Base 50)    
Moisture  
Dew Point 44 °F    
Average Humidity 85    
Maximum Humidity 93    
Minimum Humidity 77    
Precipitation  
Precipitation 0.00 in 0.13 in 1.81 in (1958)
Month to date precipitation 0.52 2.25  
Year to date precipitation 2.95 5.89  
Since 1 July precipitation 5.30  
Sea Level Pressure  
Sea Level Pressure 30.14 in    
Wind  
Wind Speed 5 mph (South)    
Max Wind Speed 14 mph    
Max Gust Speed 16 mph    
Visibility 10 miles    
Events      
T = Trace of Precipitation, MM = Missing Value Source: NWS Daily Summary

Daily Weather History Graph

Daily Weather History Graph

Search for Another Location

Airport or City:

Trip Planner

Search our weather history database for the weather conditions in past years. The results will help you decide how hot, cold, wet, or windy it might be!

Date:

Astronomy

Feb. 18, 2012 Rise Set
Actual Time 6:53 AM PST 5:46 PM PST
Civil Twilight 6:26 AM PST 6:13 PM PST
Nautical Twilight 5:55 AM PST 6:44 PM PST
Astronomical Twilight 5:24 AM PST 7:15 PM PST
Moon 4:35 AM PST (2/18) 2:51 PM PST (2/18)
Length of Visible Light 11h 47m
Length of Day
10h 53m
Waning Crescent, 10% of the Moon is Illuminated
Feb 18
Waning Crescent
Feb 21
New
Feb 29
First Quarter
Mar 8
Full
Mar 14
Last Quarter

Hourly Weather History & Observations

Time (PST) Temp. Windchill Dew Point Humidity Pressure Visibility Wind Dir Wind Speed Gust Speed Precip Events Conditions
12:53 AM 48.0 °F - 43.0 °F 83% 30.18 in 10.0 mi ESE 4.6 mph - N/A   Clear
1:53 AM 46.9 °F - 41.0 °F 80% 30.17 in 10.0 mi SE 4.6 mph - N/A   Clear
2:53 AM 46.0 °F 43.1 °F 41.0 °F 83% 30.16 in 10.0 mi SE 5.8 mph - N/A   Clear
3:53 AM 46.4 °F 44.3 °F 42.8 °F 87% 30.16 in 10.0 mi SE 4.6 mph - N/A   Clear
4:04 AM 46.4 °F 43.5 °F 42.8 °F 87% 30.16 in 10.0 mi SE 5.8 mph - N/A   Partly Cloudy
4:21 AM 46.4 °F 45.2 °F 44.6 °F 93% 30.16 in 10.0 mi SSE 3.5 mph - N/A   Mostly Cloudy
4:53 AM 46.9 °F - 45.0 °F 93% 30.16 in 10.0 mi SSE 4.6 mph - N/A   Overcast
5:53 AM 48.0 °F - 45.0 °F 89% 30.16 in 9.0 mi SSE 3.5 mph - N/A   Overcast
6:53 AM 48.2 °F - 46.4 °F 93% 30.17 in 9.0 mi SSE 3.5 mph - N/A   Overcast
7:53 AM 48.9 °F - 46.9 °F 93% 30.17 in 10.0 mi South 4.6 mph - N/A   Overcast
8:53 AM 48.2 °F - 46.4 °F 93% 30.18 in 9.0 mi SSW 4.6 mph - N/A   Overcast
9:01 AM 48.2 °F - 46.4 °F 93% 30.18 in 9.0 mi Calm Calm - N/A   Overcast
9:26 AM 50.0 °F - 46.4 °F 87% 30.17 in 10.0 mi South 3.5 mph - N/A   Partly Cloudy
9:53 AM 51.1 °F - 46.9 °F 86% 30.17 in 10.0 mi SSW 3.5 mph - N/A   Clear
10:53 AM 54.0 °F - 48.9 °F 83% 30.14 in 10.0 mi SSE 5.8 mph - N/A   Clear
11:53 AM 55.0 °F - 48.0 °F 77% 30.15 in 10.0 mi West 5.8 mph - N/A   Mostly Cloudy
12:06 PM 55.4 °F - 48.2 °F 77% 30.14 in 10.0 mi WSW 4.6 mph - N/A   Scattered Clouds
12:53 PM 55.4 °F - 48.2 °F 77% 30.13 in 10.0 mi WNW 6.9 mph - N/A   Partly Cloudy
1:53 PM 55.9 °F - 48.0 °F 75% 30.12 in 10.0 mi NW 12.7 mph - N/A   Mostly Cloudy
2:06 PM 53.6 °F - 48.2 °F 82% 30.11 in 8.0 mi NNW 11.5 mph - N/A   Mostly Cloudy
2:53 PM 54.0 °F - 48.0 °F 80% 30.10 in 9.0 mi NNW 8.1 mph - N/A   Overcast
3:19 PM 55.4 °F - 48.2 °F 77% 30.10 in 10.0 mi North 6.9 mph - N/A   Overcast
3:53 PM 57.0 °F - 48.0 °F 72% 30.09 in 10.0 mi Variable 6.9 mph - N/A   Mostly Cloudy
4:02 PM 57.2 °F - 46.4 °F 67% 30.09 in 10.0 mi North 9.2 mph - N/A   Scattered Clouds
4:53 PM 55.4 °F - 46.4 °F 72% 30.09 in 10.0 mi North 4.6 mph - N/A   Clear
5:53 PM 53.1 °F - 44.1 °F 71% 30.09 in 10.0 mi Calm Calm - N/A   Clear
6:53 PM 48.9 °F - 43.0 °F 80% 30.10 in 10.0 mi Calm Calm - N/A   Clear
7:53 PM 46.0 °F - 43.0 °F 89% 30.10 in 9.0 mi Calm Calm - N/A   Clear
8:53 PM 45.0 °F - 43.0 °F 93% 30.09 in 6.0 mi Calm Calm - N/A   Partly Cloudy
9:53 PM 46.0 °F 43.9 °F 37.9 °F 73% 30.12 in 10.0 mi NW 4.6 mph - N/A   Clear
10:53 PM 46.0 °F 43.1 °F 32.0 °F 58% 30.11 in 10.0 mi NNW 5.8 mph - N/A   Clear
11:53 PM 45.0 °F 41.8 °F 28.9 °F 53% 30.11 in 10.0 mi NW 5.8 mph - N/A   Clear